Date,TemperatureHighF,TemperatureAvgF,TemperatureLowF,DewpointHighF,DewpointAvgF,DewpointLowF,HumidityHigh,HumidityAvg,HumidityLow,PressureMaxIn,PressureMinIn,WindSpeedMaxMPH,WindSpeedAvgMPH,GustSpeedMaxMPH,PrecipitationSumIn
2013-2-1,49.0,40.2,32.0,-99.9,-99.9,-99.9,0,0,100,0.00,40.00,10,3,13,0.00
2013-2-2,40.0,33.4,26.0,-99.9,-99.9,-99.9,0,0,100,0.00,40.00,24,9,34,0.00
2013-2-3,37.0,35.0,33.0,-99.9,-99.9,-99.9,0,0,100,0.00,40.00,34,22,39,0.00
2013-2-4,38.0,35.4,32.0,-99.9,-99.9,-99.9,0,0,100,0.00,40.00,35,20,41,0.00
2013-2-5,43.0,37.3,34.0,-99.9,-99.9,-99.9,0,0,100,0.00,40.00,45,20,45,0.00
2013-2-6,44.0,37.7,35.0,-99.9,-99.9,-99.9,0,0,100,0.00,40.00,37,10,37,0.00
2013-2-7,38.0,34.4,29.0,-99.9,-99.9,-99.9,0,0,100,0.00,40.00,30,9,30,0.00
2013-2-8,38.0,32.0,26.0,-99.9,-99.9,-99.9,0,0,100,0.00,40.00,23,12,25,0.00
2013-2-9,40.0,33.6,29.0,-99.9,-99.9,-99.9,0,0,100,0.00,40.00,26,14,26,0.00
2013-2-10,40.0,34.0,28.0,-99.9,-99.9,-99.9,0,0,100,0.00,40.00,12,6,14,0.00
2013-2-11,47.0,34.5,22.0,-99.9,-99.9,-99.9,0,0,100,0.00,40.00,7,2,7,0.00
2013-2-12,51.0,39.7,33.0,-99.9,-99.9,-99.9,0,0,100,0.00,40.00,11,4,14,0.00
2013-2-13,49.0,41.4,37.0,-99.9,-99.9,-99.9,0,0,100,0.00,40.00,16,5,24,0.00
2013-2-14,49.0,40.2,32.0,-99.9,-99.9,-99.9,0,0,100,0.00,40.00,6,3,9,0.00
2013-2-15,47.0,40.8,32.0,-99.9,-99.9,-99.9,0,0,100,0.00,40.00,30,13,32,0.00
2013-2-16,47.0,41.0,36.0,-99.9,-99.9,-99.9,0,0,100,0.00,40.00,39,18,41,0.00
2013-2-17,40.0,34.2,27.0,-99.9,-99.9,-99.9,0,0,100,0.00,40.00,16,5,16,0.00
2013-2-18,40.0,34.0,24.0,-99.9,-99.9,-99.9,0,0,100,0.00,40.00,34,12,39,0.00
2013-2-19,40.0,34.5,29.0,-99.9,-99.9,-99.9,0,0,100,0.00,40.00,20,7,21,0.00
2013-2-20,40.0,33.1,28.0,-99.9,-99.9,-99.9,0,0,100,0.00,40.00,12,4,13,0.00
2013-2-21,39.0,33.2,29.0,-99.9,-99.9,-99.9,0,0,100,0.00,40.00,9,4,12,0.00
2013-2-22,37.0,33.5,30.0,-99.9,-99.9,-99.9,0,0,100,0.00,40.00,21,12,31,0.00
2013-2-23,41.0,32.6,29.0,-99.9,-99.9,-99.9,0,0,100,0.00,40.00,13,4,15,0.00
2013-2-24,39.0,32.8,25.0,-99.9,-99.9,-99.9,0,0,100,0.00,40.00,25,9,28,0.00
2013-2-25,40.0,34.5,29.0,-99.9,-99.9,-99.9,0,0,100,0.00,40.00,33,13,33,0.00
2013-2-26,40.0,34.2,29.0,-99.9,-99.9,-99.9,0,0,100,0.00,40.00,21,7,26,0.00
2013-2-27,42.0,35.6,30.0,-99.9,-99.9,-99.9,0,0,100,0.00,40.00,31,22,35,0.00
2013-2-28,39.0,35.9,33.0,-99.9,-99.9,-99.9,0,0,100,0.00,40.00,32,17,32,0.00